• In Czech Republic
  • List of Countries
  • For 7 days
  • Water Temperature
  • Satellite Maps
  • Weather Map
  • Weather Widgets
  • user-avatar
    Login

    Hourly Weather Portsmouth

    Today, 23 October, Monday

    Time Temperature Precipitation Wind Pressure Humidity
    00:00 +19°C° 0 mm 2 mps 769 mmHg 87%
    01:00 +19°C° 0 mm 2 mps 768 mmHg 89%
    02:00 +19°C° 0 mm 2 mps 768 mmHg 89%
    03:00 +19°C° 0 mm 2 mps 768 mmHg 89%
    04:00 +19°C° 0 mm 2 mps 768 mmHg 88%
    05:00 +19°C° 0 mm 2 mps 768 mmHg 88%
    06:00 +19°C° 0 mm 2 mps 767 mmHg 87%
    07:00 +19°C° 0 mm 2 mps 767 mmHg 86%
    08:00 +21°C° 0 mm 3 mps 767 mmHg 78%
    09:00 +23°C° 0 mm 4 mps 766 mmHg 70%
    10:00 +26°C° 0 mm 4 mps 766 mmHg 62%
    11:00 +26°C° 0 mm 5 mps 765 mmHg 60%
    12:00 +27°C° 0 mm 6 mps 765 mmHg 59%
    13:00 +27°C° 0 mm 7 mps 764 mmHg 58%
    14:00 +27°C° 0 mm 7 mps 763 mmHg 60%
    15:00 +26°C° 0 mm 7 mps 762 mmHg 63%
    16:00 +26°C° 0 mm 7 mps 762 mmHg 66%
    17:00 +24°C° 0 mm 7 mps 761 mmHg 69%
    18:00 +24°C° 0 mm 7 mps 761 mmHg 72%
    19:00 +23°C° 0 mm 7 mps 761 mmHg 75%
    20:00 +23°C° 0.1 mm 8 mps 760 mmHg 77%
    21:00 +23°C° 0.1 mm 8 mps 760 mmHg 79%
    22:00 +23°C° 0.1 mm 8 mps 759 mmHg 81%
    23:00 +23°C° 0.2 mm 8 mps 759 mmHg 81%

    Tomorrow, 24 October, Tuesday

    Time Temperature Precipitation Wind Pressure Humidity
    00:00 +23°C° 0.2 mm 8 mps 759 mmHg 82%
    01:00 +23°C° 0.2 mm 8 mps 758 mmHg 83%
    02:00 +23°C° 0.3 mm 8 mps 758 mmHg 84%
    03:00 +23°C° 0.3 mm 8 mps 757 mmHg 85%
    04:00 +23°C° 0.3 mm 8 mps 757 mmHg 87%
    05:00 +23°C° 0.4 mm 8 mps 757 mmHg 87%
    06:00 +23°C° 0.4 mm 8 mps 757 mmHg 87%
    07:00 +23°C° 0.4 mm 8 mps 757 mmHg 88%
    08:00 +23°C° 0.4 mm 7 mps 757 mmHg 87%
    09:00 +23°C° 0.4 mm 7 mps 757 mmHg 86%
    10:00 +23°C° 0.4 mm 7 mps 757 mmHg 85%
    11:00 +24°C° 0.9 mm 7 mps 757 mmHg 81%
    12:00 +24°C° 0.9 mm 7 mps 756 mmHg 77%
    13:00 +26°C° 0.9 mm 6 mps 756 mmHg 72%
    14:00 +26°C° 0.9 mm 6 mps 756 mmHg 70%
    15:00 +26°C° 0.9 mm 5 mps 755 mmHg 67%
    16:00 +26°C° 0.9 mm 5 mps 755 mmHg 64%
    17:00 +23°C° 0.2 mm 4 mps 755 mmHg 66%
    18:00 +21°C° 0.2 mm 4 mps 756 mmHg 68%
    19:00 +20°C° 0.2 mm 4 mps 756 mmHg 70%
    20:00 +19°C° 0.1 mm 4 mps 756 mmHg 70%
    21:00 +18°C° 0.1 mm 4 mps 756 mmHg 70%
    22:00 +18°C° 0.1 mm 4 mps 757 mmHg 70%
    23:00 +17°C° 0 mm 4 mps 757 mmHg 71%

    Day after tomorrow, 25 October, Wednesday

    Time Temperature Precipitation Wind Pressure Humidity
    00:00 +17°C° 0 mm 4 mps 757 mmHg 71%
    01:00 +17°C° 0 mm 4 mps 757 mmHg 72%
    02:00 +15°C° 0 mm 4 mps 757 mmHg 73%
    03:00 +14°C° 0 mm 4 mps 757 mmHg 74%
    04:00 +14°C° 0 mm 4 mps 757 mmHg 75%
    05:00 +13°C° 0 mm 4 mps 757 mmHg 74%
    06:00 +13°C° 0 mm 4 mps 757 mmHg 74%
    07:00 +13°C° 0 mm 4 mps 758 mmHg 73%
    08:00 +14°C° 0 mm 3 mps 758 mmHg 66%
    09:00 +16°C° 0 mm 3 mps 758 mmHg 60%
    10:00 +18°C° 0 mm 3 mps 759 mmHg 54%
    11:00 +19°C° 0 mm 3 mps 758 mmHg 50%
    12:00 +19°C° 0 mm 3 mps 758 mmHg 46%
    13:00 +20°C° 0 mm 3 mps 758 mmHg 43%
    14:00 +19°C° 0 mm 3 mps 758 mmHg 42%
    15:00 +19°C° 0 mm 3 mps 757 mmHg 42%
    16:00 +19°C° 0 mm 3 mps 757 mmHg 41%
    17:00 +17°C° 0 mm 4 mps 758 mmHg 45%
    18:00 +15°C° 0 mm 4 mps 759 mmHg 48%
    19:00 +13°C° 0 mm 4 mps 759 mmHg 51%
    20:00 +13°C° 0 mm 4 mps 760 mmHg 52%
    21:00 +12°C° 0 mm 4 mps 760 mmHg 54%
    22:00 +12°C° 0 mm 4 mps 761 mmHg 56%
    23:00 +11°C° 0 mm 4 mps 761 mmHg 58%

    26 October, Thursday

    Time Temperature Precipitation Wind Pressure Humidity
    00:00 +11°C° 0 mm 4 mps 761 mmHg 61%
    01:00 +10°C° 0 mm 4 mps 761 mmHg 64%
    02:00 +10°C° 0 mm 4 mps 762 mmHg 66%
    03:00 +10°C° 0 mm 4 mps 762 mmHg 67%
    04:00 +8°C° 0 mm 4 mps 762 mmHg 69%
    05:00 +9°C° 0 mm 3 mps 762 mmHg 70%
    06:00 +9°C° 0 mm 3 mps 763 mmHg 71%
    07:00 +9°C° 0 mm 3 mps 763 mmHg 72%
    08:00 +11°C° 0 mm 3 mps 764 mmHg 67%
    09:00 +13°C° 0 mm 3 mps 764 mmHg 61%
    10:00 +16°C° 0 mm 3 mps 764 mmHg 56%
    11:00 +17°C° 0 mm 3 mps 764 mmHg 53%
    12:00 +18°C° 0 mm 3 mps 764 mmHg 49%
    13:00 +18°C° 0 mm 3 mps 764 mmHg 46%
    14:00 +18°C° 0 mm 3 mps 764 mmHg 48%
    15:00 +18°C° 0 mm 3 mps 763 mmHg 50%
    16:00 +17°C° 0 mm 3 mps 763 mmHg 52%
    17:00 +16°C° 0 mm 3 mps 764 mmHg 55%
    18:00 +15°C° 0 mm 2 mps 764 mmHg 59%
    19:00 +13°C° 0 mm 2 mps 764 mmHg 63%
    20:00 +13°C° 0 mm 2 mps 764 mmHg 63%
    21:00 +13°C° 0 mm 2 mps 764 mmHg 64%
    22:00 +13°C° 0 mm 2 mps 764 mmHg 65%
    23:00 +13°C° 0 mm 2 mps 763 mmHg 66%

    27 October, Friday

    Time Temperature Precipitation Wind Pressure Humidity
    00:00 +12°C° 0 mm 2 mps 763 mmHg 67%
    01:00 +12°C° 0 mm 2 mps 762 mmHg 68%
    02:00 +12°C° 0 mm 2 mps 762 mmHg 69%
    03:00 +11°C° 0 mm 3 mps 762 mmHg 71%
    04:00 +11°C° 0 mm 3 mps 762 mmHg 72%
    05:00 +11°C° 0 mm 3 mps 762 mmHg 73%
    06:00 +11°C° 0 mm 3 mps 762 mmHg 74%
    07:00 +11°C° 0 mm 3 mps 762 mmHg 74%
    08:00 +13°C° 0 mm 3 mps 762 mmHg 68%
    09:00 +16°C° 0 mm 3 mps 762 mmHg 61%
    10:00 +18°C° 0 mm 3 mps 762 mmHg 55%
    11:00 +19°C° 0 mm 3 mps 761 mmHg 51%
    12:00 +20°C° 0 mm 2 mps 761 mmHg 48%
    13:00 +20°C° 0 mm 2 mps 760 mmHg 44%
    14:00 +20°C° 0 mm 2 mps 760 mmHg 45%
    15:00 +20°C° 0 mm 2 mps 760 mmHg 47%
    16:00 +19°C° 0 mm 2 mps 760 mmHg 48%
    17:00 +19°C° 0 mm 1 mps 760 mmHg 53%
    18:00 +16°C° 0 mm 1 mps 760 mmHg 57%
    19:00 +15°C° 0 mm 1 mps 760 mmHg 61%
    20:00 +14°C° 0 mm 1 mps 760 mmHg 64%
    21:00 +14°C° 0 mm 1 mps 760 mmHg 66%
    22:00 +14°C° 0 mm 1 mps 760 mmHg 68%
    23:00 +13°C° 0 mm 1 mps 760 mmHg 70%

    28 October, Saturday

    Time Temperature Precipitation Wind Pressure Humidity
    00:00 +13°C° 0 mm 1 mps 760 mmHg 73%
    01:00 +13°C° 0 mm 1 mps 760 mmHg 75%
    02:00 +12°C° 0 mm 1 mps 760 mmHg 76%
    03:00 +12°C° 0 mm 1 mps 759 mmHg 77%
    04:00 +12°C° 0 mm 1 mps 759 mmHg 79%
    05:00 +12°C° 0 mm 1 mps 760 mmHg 78%
    06:00 +12°C° 0 mm 1 mps 760 mmHg 78%
    07:00 +12°C° 0 mm 1 mps 760 mmHg 78%
    08:00 +14°C° 0 mm 1 mps 760 mmHg 69%
    09:00 +16°C° 0 mm 1 mps 760 mmHg 60%
    10:00 +18°C° 0 mm 0 mps 759 mmHg 52%
    11:00 +19°C° 0 mm 0 mps 759 mmHg 48%
    12:00 +20°C° 0 mm 0 mps 758 mmHg 45%
    13:00 +23°C° 0 mm 1 mps 758 mmHg 42%
    14:00 +22°C° 0 mm 1 mps 758 mmHg 44%
    15:00 +22°C° 0 mm 1 mps 757 mmHg 47%
    16:00 +21°C° 0 mm 1 mps 757 mmHg 49%
    17:00 +19°C° 0 mm 2 mps 757 mmHg 54%
    18:00 +18°C° 0 mm 2 mps 757 mmHg 59%
    19:00 +16°C° 0 mm 2 mps 758 mmHg 64%
    20:00 +14°C° 0 mm 3 mps 758 mmHg 68%
    21:00 +14°C° 0 mm 3 mps 758 mmHg 71%
    22:00 +13°C° 0 mm 3 mps 757 mmHg 75%
    23:00 +12°C° 0 mm 4 mps 757 mmHg 76%

    29 October, Sunday

    Time Temperature Precipitation Wind Pressure Humidity
    00:00 +12°C° 0 mm 4 mps 757 mmHg 78%
    01:00 +10°C° 0 mm 5 mps 756 mmHg 79%
    02:00 +10°C° 0.1 mm 5 mps 756 mmHg 80%
    03:00 +9°C° 0.1 mm 5 mps 756 mmHg 81%
    04:00 +9°C° 0.1 mm 6 mps 756 mmHg 82%
    05:00 +8°C° 0.6 mm 5 mps 756 mmHg 85%
    06:00 +8°C° 0.6 mm 5 mps 756 mmHg 87%
    07:00 +7°C° 0.6 mm 5 mps 756 mmHg 89%
    08:00 +7°C° 0.9 mm 6 mps 755 mmHg 88%
    09:00 +8°C° 0.9 mm 6 mps 755 mmHg 86%
    10:00 +8°C° 0.9 mm 6 mps 755 mmHg 85%
    11:00 +8°C° 0 mm 6 mps 754 mmHg 79%
    12:00 +9°C° 0 mm 6 mps 754 mmHg 72%
    13:00 +10°C° 0 mm 6 mps 754 mmHg 66%
    14:00 +10°C° 0 mm 6 mps 754 mmHg 60%
    15:00 +11°C° 0 mm 6 mps 754 mmHg 54%
    16:00 +13°C° 0 mm 5 mps 754 mmHg 49%
    17:00 +10°C° 0 mm 5 mps 754 mmHg 51%
    18:00 +9°C° 0 mm 5 mps 755 mmHg 53%
    19:00 +8°C° 0 mm 5 mps 755 mmHg 55%
    20:00 +8°C° 0 mm 5 mps 755 mmHg 54%
    21:00 +8°C° 0 mm 5 mps 755 mmHg 53%
    22:00 +7°C° 0 mm 5 mps 754 mmHg 52%
    23:00 +7°C° 0 mm 6 mps 755 mmHg 53%
    Show more